Location: Anhiers
(50.4074°N, 3.1551°E)
Time: 23:22:50
(UTC+00:00)

Daily predictions for brighter satellites

Satellite Brightness Start Highest point End
(mag) Time Altitude Azimuth Time Altitude Azimuth Time Altitude Azimuth
NOSS 3-1 (A) 4.2 16:06:01 10° NW 16:13:21 88° NE 16:22:01 10° SE
NOSS 2-2 (D) 4.3 16:13:24 10° NW 16:18:03 52° NE 16:24:29 10° ESE
NOSS 2-2 (E) 4.3 16:13:20 10° NW 16:18:12 61° NE 16:25:01 10° ESE
Cosmos 1408 Rocket 3.5 16:14:06 10° N 16:18:30 80° E 16:22:53 10° SSE
Envisat 4.0 16:14:34 10° S 16:19:31 52° W 16:24:30 10° NNW
Cosmos 1666 4.4 16:19:24 10° NE 16:21:04 12° ENE 16:22:42 10° E
Cosmos 2026 Rocket 4.4 16:19:39 10° N 16:25:24 39° ENE 16:31:04 10° SE
Cosmos 2322 Rocket 3.7 16:23:55 10° N 16:27:35 17° NNE 16:31:14 10° ENE
Cosmos 1743 Rocket 3.6 16:23:31 10° N 16:27:48 55° ENE 16:32:02 10° SSE
USA 305 3.2 16:24:06 10° W 16:28:16 52° N 16:32:26 10° ENE
Cosmos 1697 Rocket 2.7 16:23:41 10° NNW 16:29:20 74° ENE 16:34:56 10° SE
CZ-4B R/B 2.8 16:26:26 10° SSE 16:30:24 64° ENE 16:34:11 10° N
Cosmos 1933 4.2 16:27:38 10° SSE 16:31:13 31° E 16:34:48 10° NNE
Cosmos 1980 Rocket 2.4 16:28:31 10° NNW 16:34:01 47° NE 16:39:27 10° SE
Cosmos 1271 Rocket 4.2 16:30:52 10° SW 16:34:36 40° WNW 16:38:24 10° N
SL-08 R/B 3.3 16:30:04 10° NNE 16:34:48 72° ESE 16:39:25 10° S
Okean O Rocket 3.0 16:34:41 10° E 16:37:39 18° ENE 16:40:37 10° NNE
Cosmos 2369 3.8 16:32:44 10° NNW 16:38:27 61° ENE 16:44:06 10° SE
Cosmos 540 Rocket 4.1 16:33:53 10° SSE 16:38:30 36° ESE 16:43:10 10° NE
SJ 16-02 4.1 16:35:18 10° NW 16:38:45 23° W 16:42:11 10° SSW
FengYun 1-2 T 4.2 16:33:29 10° SSE 16:39:00 68° ENE 16:44:32 10° N
SL-16 R/B 3.3 16:41:57 10° NNW 16:46:31 24° NE 16:51:03 10° E
Cosmos 1812 4.2 16:43:58 10° SE 16:46:39 18° E 16:48:49 12° NE
Meteor PRIRODA 3.7 16:43:02 10° S 16:46:40 80° WSW 16:50:18 10° NNW
ERBS 3.4 16:44:19 10° W 16:47:14 31° NNW 16:49:40 13° NE
NOAA 12 4.2 16:42:10 10° SSE 16:47:31 90° WSW 16:52:52 10° NNW
CORIOLIS 4.2 16:45:42 10° SSE 16:51:01 63° ENE 16:56:25 10° N
Cosmos 2082 Rocket 3.0 16:47:21 10° SSE 16:52:21 33° ESE 16:56:54 12° NE
Meteor 1-25 Rocket 4.2 16:48:58 10° NNW 16:54:35 85° ENE 17:00:12 10° SSE
Cosmos 1500 Rocket 3.8 16:51:29 10° NNW 16:55:55 75° W 17:00:19 10° S
Cosmos 468 Rocket 3.9 16:52:20 10° SSW 16:57:30 80° ESE 17:02:44 10° NNE
Cosmos 2333 Rocket 4.0 16:56:01 10° N 16:58:53 14° NNE 17:00:43 12° NE
USA 306 3.2 16:56:24 10° WNW 17:00:34 51° N 17:03:34 18° ENE
Cosmos 1898 Rocket 4.0 16:56:09 10° NNW 17:01:23 66° WSW 17:06:32 10° S
Cosmos 2278 3.8 16:56:28 10° NNW 17:02:06 54° NE 17:07:40 10° SE
Cosmos 1818 3.9 16:57:46 10° NW 17:03:03 45° NE 17:08:17 10° ESE
Cosmos 1602 3.6 16:59:11 10° N 17:03:04 82° E 17:06:56 10° SSE
Sich 1 2.9 16:58:55 10° N 17:03:12 64° ENE 17:07:28 10° SSE
CZ-4B DEB 4.2 16:58:25 10° SSE 17:03:54 69° ENE 17:09:21 10° NNW
Cosmos 2221 3.7 17:00:52 10° SSW 17:04:57 43° WNW 17:09:06 10° N
Cosmos 1939 Rocket 3.0 17:01:25 10° SSE 17:05:32 84° WSW 17:09:37 10° NNW
ARGOS 3.7 17:02:29 10° SE 17:07:22 36° ENE 17:12:15 10° N
Cosmos 1805 Rocket 3.5 17:03:31 10° N 17:07:53 89° E 17:12:13 10° S
Cosmos 1833 Rocket 2.7 17:06:23 10° SSW 17:12:00 87° ESE 17:17:33 11° NNE
NOSS 2-2 (C) 4.4 17:10:36 10° NW 17:15:37 80° SW 17:22:42 10° SE
COSMOS 2406 3.2 17:10:13 10° SSW 17:15:56 75° ESE 17:21:11 13° NNE
GEOS 3 Rocket 4.2 17:13:45 17° E 17:17:07 36° NNE 17:21:50 10° NNW
deb Chang Zheng 4 3.9 17:14:33 10° SE 17:18:36 41° ENE 17:22:41 10° N
USA 307 3.2 17:15:38 10° WNW 17:19:48 52° N 17:21:59 26° ENE
Cosmos 2219 Rocket 3.9 17:16:55 10° N 17:19:50 14° NNE 17:20:35 14° NE
USA 267 3.3 17:16:34 18° ENE 17:21:42 79° SSE 17:28:15 10° SW
Cosmos 1092 Rocket 4.3 17:15:41 10° NNW 17:22:02 75° W 17:28:20 10° S
CZ-2C R/B 4.3 17:17:34 10° SSW 17:22:09 40° W 17:26:39 10° NNW
Cosmos 1782 2.7 17:19:43 10° S 17:23:42 74° E 17:27:42 10° NNE
CZ-2C R/B 3.0 17:21:47 13° NNE 17:26:02 38° E 17:30:49 10° SSE
Cosmos 1500 3.2 17:24:01 10° NNW 17:27:46 80° W 17:31:30 10° S
Cosmos 1763 Rocket 4.0 17:24:00 10° SW 17:28:59 57° WNW 17:34:05 10° NNE
Cosmos 2150 Rocket 4.4 17:24:21 10° NNW 17:29:12 39° ENE 17:33:12 15° ESE
SL-08 RB Rocket 4.3 17:25:30 10° SE 17:29:40 35° ENE 17:33:50 10° N
CZ-4C R/B 2.9 17:22:40 10° NW 17:29:43 87° NE 17:38:06 10° SE
CZ-2D R/B 3.1 17:26:08 10° SSE 17:29:57 87° ENE 17:33:48 10° NNW
Meteor 2-16 Rocket 4.4 17:24:50 10° N 17:30:58 69° ENE 17:37:03 10° SSE
H-2A R/B 1.9 17:28:05 10° SSE 17:33:14 83° ENE 17:38:17 10° NNW
CZ-4B R/B 3.1 17:29:20 10° SSE 17:34:40 68° ENE 17:39:59 10° NNW
Cosmos 841 Rocket 3.4 17:31:09 10° SSW 17:36:18 82° ESE 17:40:21 17° NNE
PAYLOAD B 4.3 17:30:54 10° SSE 17:36:32 86° WSW 17:42:10 10° NNW
ATLAS CENTAUR R/B 3.7 17:34:28 10° NW 17:37:17 16° NNW 17:39:25 12° NNE
USA 308 3.1 17:38:13 10° WNW 17:42:26 56° N 17:43:39 40° ENE
SMAP 4.3 17:38:31 10° S 17:42:56 43° W 17:47:24 10° NNW
Lacrosse 5 rocket 1.1 17:39:30 10° WNW 17:43:24 76° NNE 17:44:49 39° ESE
COSMO-SKYMED 1 2.7 17:41:39 30° NE 17:43:26 48° E 17:47:38 10° S
Cosmos 1125 Rocket 3.7 17:39:23 10° NNW 17:44:28 47° ENE 17:47:31 22° ESE
Cosmos 2142 Rocket 4.4 17:39:24 10° S 17:45:32 74° E 17:51:47 10° NNE
Cosmos 921 Rocket 4.1 17:42:45 10° SSE 17:45:22 26° SE 17:45:22 26° SE
COSMOS 2455 2.8 17:42:38 10° SSW 17:48:40 86° SE 17:52:28 24° NE
Cosmos 1633 Rocket 2.9 17:45:53 10° N 17:50:17 88° ENE 17:54:41 10° S
ATLAS 2AS CENTAUR R/B 4.0 17:44:22 10° WNW 17:50:53 29° N 17:54:01 22° NE
Cosmos 2279 Rocket 3.9 17:44:46 10° S 17:50:57 76° E 17:57:10 10° NNE
ISS -2.0 17:48:05 10° W 17:51:07 30° SSW 17:53:03 17° SSE
Cosmos 2360 Rocket 3.0 17:47:01 10° NNW 17:52:02 31° NE 17:52:12 31° NE
Cosmos 2266 Rocket 4.1 17:46:42 10° N 17:52:59 56° ENE 17:59:17 10° SSE
Cosmos 44 Rocket 3.2 17:48:05 10° NW 17:53:04 83° NE 17:56:04 23° SE
YAOGAN 1 3.6 17:56:50 29° NNE 17:56:50 29° NNE 17:59:19 10° N
CZ-4 R/B 3.6 17:59:29 14° N 17:59:29 14° N 18:00:05 10° N
Meteor 1-11 Rocket 3.8 17:51:19 10° N 17:56:48 51° ENE 18:02:21 10° SSE
USA 234 4.0 17:50:32 10° SSE 17:56:52 51° SW 18:03:13 10° WNW
Cosmos 1666 2.9 17:53:20 10° NNW 17:57:03 67° W 18:00:43 10° S
Meteor 1-10 Rocket 4.4 17:52:46 10° SSE 17:58:17 49° E 18:00:37 31° NE
Cosmos 1151 Rocket 3.0 17:57:27 10° SSW 18:01:48 83° WNW 18:04:41 21° N
COSMOS 2428 4.4 18:00:55 10° N 18:03:52 18° NNE 18:03:52 18° NNE
SKYMED 3 4.4 18:06:03 40° NNE 18:07:37 83° ESE 18:11:57 10° SSW
CZ-4 R/B 4.4 18:03:30 10° SSE 18:07:38 83° WSW 18:11:48 10° NNW
USA 305 2.8 18:04:15 10° WNW 18:08:30 68° NNE 18:08:40 67° NNE
Cosmos 1900 4.2 18:06:43 10° SSW 18:11:30 60° ESE 18:11:48 59° ESE
Cosmos 2322 Rocket 2.2 18:07:17 10° NNW 18:12:55 57° NE 18:13:54 50° E
Okean O Rocket 1.8 18:09:04 10° S 18:13:30 71° WSW 18:17:59 10° NNW
Feng Yun 1-1 Rocket 4.2 18:08:50 10° SSE 18:14:44 78° ENE 18:20:36 10° NNW
Meteor 2-15 4.3 18:09:34 10° S 18:15:39 73° E 18:21:06 13° NNE
Landsat 5 3.8 18:16:56 50° S 18:16:56 50° S 18:20:00 10° S
Cosmos 1980 Rocket 3.7 18:12:47 10° NW 18:17:55 36° WSW 18:22:58 10° S
Cosmos 1470 Rocket 3.6 18:15:55 10° NNW 18:20:24 78° W 18:24:52 10° S
Cosmos 1812 3.9 18:18:25 10° SSW 18:22:05 42° WNW 18:23:53 25° NNW
Cosmos 1328 Rocket 3.7 18:18:06 10° SSW 18:22:32 72° W 18:24:03 40° N
Spot 2 4.3 18:20:29 22° SSE 18:23:49 78° ENE 18:28:57 10° NNW
SL-16 R/B 2.1 18:25:40 10° NNW 18:31:23 87° WSW 18:33:21 43° SSE
SKYMED 2 4.0 18:30:16 41° NNW 18:31:32 59° WNW 18:35:48 10° SSW
Cosmos 1570 Rocket 4.3 18:28:34 10° SW 18:33:46 65° WNW 18:35:28 42° N
Cosmos 2237 Rocket 4.3 18:31:15 10° N 18:32:29 13° N 18:32:29 13° N
Cosmos 1655 Rocket 4.1 18:28:07 10° NNW 18:34:32 77° W 18:40:52 10° S
Cosmos 2298 Rocket 4.3 18:29:25 10° NNW 18:34:44 67° WSW 18:38:49 17° S
Cosmos 2082 Rocket 2.9 18:30:43 10° SW 18:36:14 51° NW 18:38:46 30° N
ATLAS CENTAUR R/B 2.7 18:30:57 10° WSW 18:37:45 51° NNW 18:37:45 51° NNW
USA 306 3.7 18:36:27 10° WNW 18:39:34 48° WNW 18:39:34 48° WNW
Cosmos 2333 Rocket 3.5 18:39:30 10° NNW 18:42:44 29° N 18:42:44 29° N
ARGOS 4.3 18:42:28 10° SSW 18:47:34 42° W 18:52:42 10° NNW
GEOS 3 Rocket 3.7 18:54:52 69° SW 18:54:56 69° SW 19:00:09 10° NW
USA 267 3.5 19:03:55 55° N 19:04:36 58° NNW 19:10:58 10° W
Cosmos 2219 Rocket 3.8 19:00:01 10° NNW 19:02:19 23° N 19:02:19 23° N
CZ-2C R/B 3.9 19:03:18 20° N 19:06:20 36° WNW 19:11:01 10° SW
ATLAS CENTAUR R/B 4.4 19:15:12 10° NNW 19:15:31 11° NNW 19:15:31 11° NNW
Lacrosse 5 rocket 4.0 19:18:57 10° WNW 19:20:27 18° W 19:20:27 18° W
COSMOS 2455 4.3 19:30:09 10° W 19:35:21 29° NNW 19:35:38 29° NNW
Cosmos 2360 Rocket 3.6 19:30:50 10° NW 19:33:59 33° NW 19:33:59 33° NW
NOSS 3-4 (A) 4.5 19:33:44 10° NW 19:38:11 44° NNW 19:38:11 44° NNW
NOSS 3-4 (C) 4.5 19:33:50 10° NW 19:38:16 44° NNW 19:38:16 44° NNW
ATLAS 2AS CENTAUR R/B 3.9 19:36:38 10° NW 19:41:27 35° NNW 19:41:27 35° NNW
Cosmos 2322 Rocket 4.0 19:51:50 10° NW 19:55:46 28° W 19:55:46 28° W
